SnugLite
1 43784U 18099AC  24228.57663778  .00017430  00000-0  11513-2 0  9998
2 43784  97.4910 283.3220 0005697 109.1916 250.9929 15.07460067311582
ITASat 1
1 43786U 18099AE  24228.57623588  .00014711  00000-0  10261-2 0  9993
2 43786  97.5062 284.1868 0017785 147.7574 212.4743 15.05357244311508
EAGLET 1
1 43790U 18099AJ  24228.88367139  .00009701  00000-0  71025-3 0  9998
2 43790  97.5264 284.9753 0015475 123.6380 236.6324 15.03673366311248
ESEO
1 43792U 18099AL  24228.11478998  .00004846  00000-0  39251-3 0  9992
2 43792  97.5181 280.7132 0011584 114.7130 245.5301 15.00113812311037
CSIM
1 43793U 18099AM  24228.77551488  .00042163  00000-0  20099-2 0  9994
2 43793  97.5264 293.0825 0012652 108.3996 251.8615 15.18902596311810
JO-97
1 43803U 18099AX  24228.15453056  .00019094  00000-0  12101-2 0  9992
2 43803  97.5164 285.5522 0011209 102.0805 258.1680 15.08927163311580
Suomi 100
1 43804U 18099AY  24228.43750943  .00016711  00000-0  10845-2 0  9995
2 43804  97.5239 285.6090 0016752 100.0966 260.2153 15.08018684311600
ISAT
1 43879U 18111D   24228.79819108  .00023234  00000-0  13337-2 0  9997
2 43879  97.6125 134.2682 0014309 145.9756 214.2395 15.12450873306408
UWE-4
1 43880U 18111E   24228.29568350  .00021270  00000-0  12614-2 0  9999
2 43880  97.6037 133.6313 0017168 158.8505 201.3438 15.11256131308358
Sparrow
1 43881U 18111F   24228.48380045  .00025293  00000-0  14308-2 0  9995
2 43881  97.6217 135.9731 0009850 181.5368 178.5834 15.13006128308443
Prox-1
1 44339U 19036A   24228.60543600  .00019587  00000-0  32624-2 0  9993
2 44339  23.9979 202.7314 0008087 299.1299  60.8386 14.68504977273988
SONATE
1 44400U 19038Q   24228.56523177  .00039180  00000-0  10600-2 0  9997
2 44400  97.7138 225.4497 0012593 246.9422 113.0495 15.37520317283191
Taurus 1
1 44530U 19059C   24226.83230581  .00018423  00000-0  41380-2 0  9992
2 44530  98.5795 348.5797 0011131 234.1764 125.8400 14.56514263260159
Duchifat 3
1 44854U 19089C   24226.83012845  .00036056  00000-0  16880-2 0  9994
2 44854  36.9562  58.4635 0005572 241.9327 118.0858 15.18849547257036
TO-108
1 44881U 19093C   24226.83109774  .00005033  00000-0  60943-3 0  9998
2 44881  97.8252 302.5027 0015450 131.0218 229.2334 14.83999621251599
FloripaSat 1
1 44885U 19093G   24226.80953931  .00014314  00000-0  14408-2 0  9997
2 44885  97.8387 308.9729 0013284 123.3998 236.8493 14.91227166251950
RS-44
1 44909U 19096E   24228.52889561  .00000040  00000-0  12207-3 0  9992
2 44909  82.5179  65.3368 0216450 272.5022  85.1317 12.79732822216567
BY70-2
1 45857U 20042B   24226.71510928  .02038026  00000-0  11449-1 0  9997
2 45857  97.8901 325.2943 0016368 285.4884  74.4572 15.75793198223434
UPMSat 2
1 46276U 20061E   24228.15400058  .00033678  00000-0  94052-3 0  9995
2 46276  97.2930 293.7974 0000417 165.2429 194.8828 15.36641905219225
AmicalSat
1 46287U 20061R   24228.77113057  .00067288  00000-0  15231-2 0  9990
2 46287  97.3438 296.2445 0000780  43.0032 317.1276 15.42891905218734
SALSAT
1 46495U 20068K   24228.77051179  .00014501  00000-0  79274-3 0  9992
2 46495  97.8195 189.6173 0015781 108.3155 251.9794 15.14290185213323
UVSQ-SAT
1 47438U 21006AB  24228.73417396  .00137398  00000-0  18053-2 0  9993
2 47438  97.3191 290.3722 0002855 337.9486  22.1646 15.58032774197979
SOMP 2b
1 47445U 21006AJ  24228.43158487  .00106432  00000-0  16919-2 0  9995
2 47445  97.3149 287.9845 0003978  13.8756 346.2605 15.52935132197828
IDEASSat
1 47458U 21006AX  24228.20949953  .00086152  00000-0  15853-2 0  9992
2 47458  97.3272 288.0824 0004181  17.7534 342.3862 15.48875774197701
CubeSX-Sirius-HSE
1 47951U 21022V   24226.83919259  .00040768  00000-0  14480-2 0  9999
2 47951  97.4518 125.1484 0010391 297.8207  62.1979 15.28861304187374
CubeSX-HSE
1 47952U 21022W   24226.85360646  .00042683  00000-0  15096-2 0  9994
2 47952  97.4521 125.2657 0010302 296.8404  63.1782 15.28989345187382
KSU-Cubesat
1 47954U 21022Y   24228.28537716  .00051193  00000-0  16035-2 0  9999
2 47954  97.4525 128.3222 0008708 281.7971  78.2294 15.32885861187422
GRBAlpha
1 47959U 21022AD  24226.81439432  .00043583  00000-0  15374-2 0  9996
2 47959  97.4519 125.3855 0010248 296.8201  63.1990 15.29070746186209
Orbicraft-Zorkiy
1 47960U 21022AE  24226.85719416  .00049626  00000-0  16210-2 0  9999
2 47960  97.4563 126.9323 0008824 292.7839  67.2469 15.31547751186974
STECCO
1 47962U 21022AG  24225.05634298  .02305750  48407-2  34578-2 0  9993
2 47962  97.4383 138.6129 0011335 170.1636 189.9869 16.05836115186912
TUBIN
1 48900U 21059X   24226.82432964  .00035903  00000-0  11371-2 0  9997
2 48900  97.6522  13.2537 0006122 239.3813 120.6825 15.32636495173745
LEDSAT
1 49069U 21073D   24228.20269594  .00035164  00000-0  12957-2 0  9991
2 49069  97.4340 299.0244 0018913  77.9666 282.3691 15.27566995165457
CUTE
1 49263U 21088D   24228.14441562  .00038741  00000-0  16575-2 0  9997
2 49263  97.4928 293.8413 0012950 229.4780 130.5329 15.22634772158606
TeikyoSat 4
1 49396U 21102B   24228.36905101  .00004993  00000-0  35681-3 0  9991
2 49396  97.4563 271.3028 0015147  77.1842 283.1076 15.04827846151657
Z-Sat
1 49399U 21102E   24226.83943966  .00011348  00000-0  71343-3 0  9992
2 49399  97.4275 271.5249 0021456  63.1147 297.2272 15.09198611151683
KOSEN 1
1 49402U 21102H   24228.87578750  .00013560  00000-0  77567-3 0  9990
2 49402  97.4205 275.1618 0019135  40.0708 320.1930 15.12621063152166
HO-113
1 50466U 21131B   24226.80896280  .00002827  00000-0  91499-3 0  9990
2 50466  98.5266 311.6119 0003298 326.8046  33.2935 14.39811282138299
IRIS-A
1 51044U 22002BN  24228.58462471  .00039929  00000-0  11788-2 0  9994
2 51044  97.3806 294.9889 0006402 173.3447 186.7882 15.34842710143529
OreSat0
1 52017U 22026K   24228.63135464  .00229187  00000-0  20217-2 0  9990
2 52017  97.4876 246.1217 0004999  26.8858 333.2661 15.67982536134979
Planetum 1
1 52738U 22057G   24228.35371346  .00092471  00000-0  17165-2 0  9996
2 52738  97.5695 356.9170 0005525 286.6934  73.3709 15.48592466123706
Foresail-1
1 52766U 22057AL  24228.76985740  .00041707  00000-0  12149-2 0  9994
2 52766  97.5872 355.8234 0008755 278.4997  81.5254 15.35239101123581
SNUGLITE 2
1 52899U 22065F   24228.64011560  .00004094  00000-0  84079-3 0  9997
2 52899  98.1267   8.6686 0007100 335.1638  24.9220 14.61154607112940
IO-117
1 53106U 22080B   24228.11242500 -.00000003  00000-0  00000-0 0  9994
2 53106  70.1424 172.0499 0007747  94.1050 266.0495  6.42557430 49057
SelfieSat
1 53951U 22057BC  24228.65243867  .00464111  00000-0  26105-2 0  9991
2 53951  97.5635   2.8846 0009310 275.5142  84.5062 15.77926020124086
FO-118
1 54684U 22167C   24226.87260966  .00061438  00000-0  18259-2 0  9994
2 54684  97.6104  13.2492 0009486 299.7086  60.3212 15.34498514 93139
SSS-2B
1 56184U 23054G   24226.85343043  .00079812  00000-0  15815-2 0  9993
2 56184  97.3596 125.5168 0003676   2.1655 357.9610 15.46762597 75032
CIRBE
1 56188U 23054L   24228.63755965  .00225800  00000-0  21479-2 0  9998
2 56188  97.3489 130.4995 0002484 135.4150 224.7311 15.66123376 75549
INSPIRE-Sat 7
1 56211U 23054AK  24228.63110928  .00283225  00000-0  21385-2 0  9990
2 56211  97.3496 132.0655 0003579 165.9106 194.2258 15.71612382 75637
RoseyCubesat 1
1 56212U 23054AL  24226.52574218  .00624925  00000-0  27517-2 0  9992
2 56212  97.3482 131.2838 0005256 158.2772 201.8721 15.82951908 75390
SO-120
1 56992U 23084BU  24226.80184356  .00070253  00000-0  21968-2 0  9994
2 56992  97.5345 346.9655 0011326 183.5284 176.5880 15.32821701 64991
MRC-100
1 56993U 23084BV  24228.30918428  .00076547  00000-0  21586-2 0  9995
2 56993  97.5332 349.1244 0010227 179.8313 180.2936 15.36072353 65278
UmKA 1 (RS40S)
1 57172U 23091G   24226.86209720  .00012886  00000-0  82733-3 0  9998
2 57172  97.6077 278.3435 0014744 285.2973  74.6625 15.08505737 62186
CubeBel-2 (EU11S)
1 57175U 23091K   24226.84776036  .00017476  00000-0  10908-2 0  9992
2 57175  97.6071 278.3502 0013355 297.6629  62.3244 15.09486500 62188
VERONIKA
1 58261U 23174F   24226.83831986  .00039304  00000-0  16117-2 0  9998
2 58261  97.4564 301.1827 0011450  45.8028 314.4148 15.24084498 42487
KAFASAT
1 58317U 23174BP  24226.84775022  .00053368  00000-0  19292-2 0  9992
2 58317  97.4508 302.0384 0009538  20.7797 339.3828 15.28222389 42550
ENSO
1 58470U 23185J   24226.83670480  .00033740  00000-0  13158-2 0  9992
2 58470  97.4220 293.0264 0012856  80.1350 280.1339 15.25786585 38925
EIRSAT-1
1 58472U 23185L   24226.84973033  .00039551  00000-0  15013-2 0  9993
2 58472  97.4215 293.1369 0012295  81.1102 279.1528 15.26656166 38932
SO-121
1 58567U 23174CY  24228.63420580  .00130189  00000-0  33401-2 0  9999
2 58567  97.4483 304.8535 0007866  10.6386 349.5024 15.38797941 42891
SONATE-2
1 59112U 24043Q   24228.31114958  .00022422  00000-0  10270-2 0  9995
2 59112  97.4834 351.5932 0015212  88.9441 271.3537 15.20392701 24787
MESAT1
1 60209U 24125G   24228.81672023  .00022420  00000-0  10189-2 0  9999
2 60209  97.3185  80.4261 0027678 114.3040 246.1091 15.20414028  6473
